Location: Newark
(49.8969°N, 3.3422°E)
Time: 20:50:18
(UTC+00:00)

Vanguard 1 Rocket - Pass Details

Date: 27 January 2020
Orbit: 650 x 4226 km, 34.3° (Epoch: 22 February)

Event Time Altitude Azimuth Distance (km) Brightness Sun altitude
Rises 09:54:21 0° 232° (SW) 3,979 10.8 16.2°
Reaches altitude 10° 09:56:53 10° 222° (SW) 3,332 10.6 16.4°
Maximum altitude 10:04:30 34° 161° (SSE) 2,830 11.6 17.0°
Drops below altitude 10° 10:17:46 10° 105° (ESE) 5,838 12.2 18.0°
Sets 10:24:03 0° 99° (E) 7,432 12.5 18.4°
